owner,sensor,date,latitude,longitude,vertical_datum,wind_speed,wind_to_direction,wind_speed_of_gust,qcFlag 
WAVCIS,ioos:station:WAVCIS:CSI16:1,2009-03-01T00:00:00Z,29.4012,-89.0355,10.0,14.67,339.0,,'11111222,11111222,99999999' 
WAVCIS,ioos:station:WAVCIS:CSI16:1,2009-03-01T01:00:00Z,29.4012,-89.0355,10.0,14.95,337.0,,'11111222,11111222,99999999' 
WAVCIS,ioos:station:WAVCIS:CSI16:1,2009-03-01T02:00:00Z,29.4012,-89.0355,10.0,14.73,339.0,,'11111222,11111222,99999999' 
WAVCIS,ioos:station:WAVCIS:CSI16:1,2009-03-01T03:00:00Z,29.4012,-89.0355,10.0,16.47,336.0,,'11111222,11111222,99999999' 
WAVCIS,ioos:station:WAVCIS:CSI16:1,2009-03-01T04:00:00Z,29.4012,-89.0355,10.0,16.95,338.0,,'11111222,11111222,99999999' 
WAVCIS,ioos:station:WAVCIS:CSI16:1,2009-03-01T05:00:00Z,29.4012,-89.0355,10.0,18.85,339.0,,'11111222,11111222,99999999' 
WAVCIS,ioos:station:WAVCIS:CSI16:1,2009-03-01T06:00:00Z,29.4012,-89.0355,10.0,17.11,338.0,,'11111222,11111222,99999999' 
WAVCIS,ioos:station:WAVCIS:CSI16:1,2009-03-01T07:00:00Z,29.4012,-89.0355,10.0,17.82,333.0,,'11111222,11111222,99999999' 
WAVCIS,ioos:station:WAVCIS:CSI16:1,2009-03-01T08:00:00Z,29.4012,-89.0355,10.0,17.59,333.0,,'11111222,11111222,99999999' 
WAVCIS,ioos:station:WAVCIS:CSI16:1,2009-03-01T09:00:00Z,29.4012,-89.0355,10.0,19.79,332.0,,'11111222,11111222,99999999' 
WAVCIS,ioos:station:WAVCIS:CSI16:1,2009-03-01T10:00:00Z,29.4012,-89.0355,10.0,17.6,331.0,,'11111222,11111222,99999999' 
WAVCIS,ioos:station:WAVCIS:CSI16:1,2009-03-01T11:00:00Z,29.4012,-89.0355,10.0,16.51,331.0,,'11111222,11111222,99999999' 
WAVCIS,ioos:station:WAVCIS:CSI16:1,2009-03-01T12:00:00Z,29.4012,-89.0355,10.0,16.66,334.0,,'11111222,11111222,99999999' 
WAVCIS,ioos:station:WAVCIS:CSI16:1,2009-03-01T13:00:00Z,29.4012,-89.0355,10.0,16.15,337.0,,'11111222,11111222,99999999' 
WAVCIS,ioos:station:WAVCIS:CSI16:1,2009-03-01T14:00:00Z,29.4012,-89.0355,10.0,15.14,333.0,,'11111222,11111222,99999999' 
WAVCIS,ioos:station:WAVCIS:CSI16:1,2009-03-01T15:00:00Z,29.4012,-89.0355,10.0,14.57,323.0,,'11111222,11111222,99999999' 
WAVCIS,ioos:station:WAVCIS:CSI16:1,2009-03-01T16:00:00Z,29.4012,-89.0355,10.0,13.82,332.0,,'11111222,11111222,99999999' 
WAVCIS,ioos:station:WAVCIS:CSI16:1,2009-03-01T17:00:00Z,29.4012,-89.0355,10.0,13.3,327.0,,'11111222,11111222,99999999' 
WAVCIS,ioos:station:WAVCIS:CSI16:1,2009-03-01T18:00:00Z,29.4012,-89.0355,10.0,14.41,329.0,,'11111222,11111222,99999999' 
WAVCIS,ioos:station:WAVCIS:CSI16:1,2009-03-01T19:00:00Z,29.4012,-89.0355,10.0,12.32,319.0,,'11111222,11111222,99999999' 
WAVCIS,ioos:station:WAVCIS:CSI16:1,2009-03-01T20:00:00Z,29.4012,-89.0355,10.0,12.94,317.0,,'11111222,11111222,99999999' 
WAVCIS,ioos:station:WAVCIS:CSI16:1,2009-03-01T21:00:00Z,29.4012,-89.0355,10.0,13.46,321.0,,'11111222,11111222,99999999' 
WAVCIS,ioos:station:WAVCIS:CSI16:1,2009-03-01T22:00:00Z,29.4012,-89.0355,10.0,14.54,329.0,,'11111222,11111222,99999999' 
WAVCIS,ioos:station:WAVCIS:CSI16:1,2009-03-01T23:00:00Z,29.4012,-89.0355,10.0,14.29,332.0,,'11111222,11111222,99999999' 
WAVCIS,ioos:station:WAVCIS:CSI16:1,2009-03-02T00:00:00Z,29.4012,-89.0355,10.0,14.89,332.0,,'11111222,11111222,99999999' 
WAVCIS,ioos:station:WAVCIS:CSI16:1,2009-03-02T01:00:00Z,29.4012,-89.0355,10.0,14.6,331.0,,'11111222,11111222,99999999' 
WAVCIS,ioos:station:WAVCIS:CSI16:1,2009-03-02T02:00:00Z,29.4012,-89.0355,10.0,14.59,333.0,,'11111222,11111222,99999999' 
WAVCIS,ioos:station:WAVCIS:CSI16:1,2009-03-02T03:00:00Z,29.4012,-89.0355,10.0,15.63,332.0,,'11111222,11111222,99999999' 
WAVCIS,ioos:station:WAVCIS:CSI16:1,2009-03-02T04:00:00Z,29.4012,-89.0355,10.0,15.24,335.0,,'11111222,11111222,99999999' 
WAVCIS,ioos:station:WAVCIS:CSI16:1,2009-03-02T05:00:00Z,29.4012,-89.0355,10.0,15.23,344.0,,'11111222,11111222,99999999' 
WAVCIS,ioos:station:WAVCIS:CSI16:1,2009-03-02T06:00:00Z,29.4012,-89.0355,10.0,14.93,345.0,,'11111222,11111222,99999999' 
WAVCIS,ioos:station:WAVCIS:CSI16:1,2009-03-02T07:00:00Z,29.4012,-89.0355,10.0,13.99,354.0,,'11111222,11111222,99999999' 
WAVCIS,ioos:station:WAVCIS:CSI16:1,2009-03-02T08:00:00Z,29.4012,-89.0355,10.0,14.1,350.0,,'11111222,11111222,99999999' 
WAVCIS,ioos:station:WAVCIS:CSI16:1,2009-03-02T09:00:00Z,29.4012,-89.0355,10.0,12.01,0.0,,'11111222,11111222,99999999' 
WAVCIS,ioos:station:WAVCIS:CSI16:1,2009-03-02T10:00:00Z,29.4012,-89.0355,10.0,10.67,358.0,,'11111222,11111222,99999999' 
WAVCIS,ioos:station:WAVCIS:CSI16:1,2009-03-02T11:00:00Z,29.4012,-89.0355,10.0,8.78,359.0,,'11111222,11111222,99999999' 
WAVCIS,ioos:station:WAVCIS:CSI16:1,2009-03-02T12:00:00Z,29.4012,-89.0355,10.0,9.64,358.0,,'11111222,11111222,99999999' 
WAVCIS,ioos:station:WAVCIS:CSI16:1,2009-03-02T13:00:00Z,29.4012,-89.0355,10.0,10.67,11.0,,'11111222,11111222,99999999' 
WAVCIS,ioos:station:WAVCIS:CSI16:1,2009-03-02T14:00:00Z,29.4012,-89.0355,10.0,12.98,358.0,,'11111222,11111222,99999999' 
WAVCIS,ioos:station:WAVCIS:CSI16:1,2009-03-02T15:00:00Z,29.4012,-89.0355,10.0,10.38,3.0,,'11111222,11111222,99999999' 
WAVCIS,ioos:station:WAVCIS:CSI16:1,2009-03-02T16:00:00Z,29.4012,-89.0355,10.0,8.6,4.0,,'11111222,11111222,99999999' 
WAVCIS,ioos:station:WAVCIS:CSI16:1,2009-03-02T17:00:00Z,29.4012,-89.0355,10.0,7.15,352.0,,'11111222,11111222,99999999' 
WAVCIS,ioos:station:WAVCIS:CSI16:1,2009-03-02T18:00:00Z,29.4012,-89.0355,10.0,7.74,350.0,,'11111222,11111222,99999999' 
WAVCIS,ioos:station:WAVCIS:CSI16:1,2009-03-02T20:00:00Z,29.4012,-89.0355,10.0,6.613,330.0,,'11111222,11111222,99999999' 
WAVCIS,ioos:station:WAVCIS:CSI16:1,2009-03-02T21:00:00Z,29.4012,-89.0355,10.0,4.275,308.0,,'11111222,11111222,99999999' 
WAVCIS,ioos:station:WAVCIS:CSI16:1,2009-03-02T22:00:00Z,29.4012,-89.0355,10.0,3.426,284.0,,'11111222,11111222,99999999' 
WAVCIS,ioos:station:WAVCIS:CSI16:1,2009-03-02T23:00:00Z,29.4012,-89.0355,10.0,3.297,301.0,,'11111222,11111222,99999999' 
WAVCIS,ioos:station:WAVCIS:CSI16:1,2009-03-03T00:00:00Z,29.4012,-89.0355,10.0,4.414,295.0,,'11111222,11111222,99999999' 
WAVCIS,ioos:station:WAVCIS:CSI16:1,2009-03-03T01:00:00Z,29.4012,-89.0355,10.0,4.253,316.0,,'11111222,11111222,99999999' 
WAVCIS,ioos:station:WAVCIS:CSI16:1,2009-03-03T02:00:00Z,29.4012,-89.0355,10.0,6.097,325.0,,'11111222,11111222,99999999' 
WAVCIS,ioos:station:WAVCIS:CSI16:1,2009-03-03T03:00:00Z,29.4012,-89.0355,10.0,6.089,329.0,,'11111222,11111222,99999999' 
WAVCIS,ioos:station:WAVCIS:CSI16:1,2009-03-03T04:00:00Z,29.4012,-89.0355,10.0,7.27,2.0,,'11111222,11111222,99999999' 
WAVCIS,ioos:station:WAVCIS:CSI16:1,2009-03-03T05:00:00Z,29.4012,-89.0355,10.0,6.816,19.0,,'11111222,11111222,99999999' 
WAVCIS,ioos:station:WAVCIS:CSI16:1,2009-03-03T06:00:00Z,29.4012,-89.0355,10.0,5.736,20.0,,'11111222,11111222,99999999' 
WAVCIS,ioos:station:WAVCIS:CSI16:1,2009-03-03T07:00:00Z,29.4012,-89.0355,10.0,5.46,24.0,,'11111222,11111222,99999999' 
WAVCIS,ioos:station:WAVCIS:CSI16:1,2009-03-03T08:00:00Z,29.4012,-89.0355,10.0,3.293,34.0,,'11111222,11111222,99999999' 
WAVCIS,ioos:station:WAVCIS:CSI16:1,2009-03-03T09:00:00Z,29.4012,-89.0355,10.0,5.364,29.0,,'11111222,11111222,99999999' 
WAVCIS,ioos:station:WAVCIS:CSI16:1,2009-03-03T10:00:00Z,29.4012,-89.0355,10.0,3.968,39.0,,'11111222,11111222,99999999' 
WAVCIS,ioos:station:WAVCIS:CSI16:1,2009-03-03T11:00:00Z,29.4012,-89.0355,10.0,3.296,33.0,,'11111222,11111222,99999999' 
WAVCIS,ioos:station:WAVCIS:CSI16:1,2009-03-03T12:00:00Z,29.4012,-89.0355,10.0,4.089,51.0,,'11111222,11111222,99999999' 
WAVCIS,ioos:station:WAVCIS:CSI16:1,2009-03-03T13:00:00Z,29.4012,-89.0355,10.0,3.625,37.0,,'11111222,11111222,99999999' 
WAVCIS,ioos:station:WAVCIS:CSI16:1,2009-03-03T14:00:00Z,29.4012,-89.0355,10.0,4.418,44.0,,'11111222,11111222,99999999' 
WAVCIS,ioos:station:WAVCIS:CSI16:1,2009-03-03T15:00:00Z,29.4012,-89.0355,10.0,5.654,55.0,,'11111222,11111222,99999999' 
WAVCIS,ioos:station:WAVCIS:CSI16:1,2009-03-03T16:00:00Z,29.4012,-89.0355,10.0,4.606,54.0,,'11111222,11111222,99999999' 
WAVCIS,ioos:station:WAVCIS:CSI16:1,2009-03-03T17:00:00Z,29.4012,-89.0355,10.0,4.805,55.0,,'11111222,11111222,99999999' 
WAVCIS,ioos:station:WAVCIS:CSI16:1,2009-03-03T18:00:00Z,29.4012,-89.0355,10.0,4.025,57.0,,'11111222,11111222,99999999' 
WAVCIS,ioos:station:WAVCIS:CSI16:1,2009-03-03T20:00:00Z,29.4012,-89.0355,10.0,2.127,52.0,,'11111222,11111222,99999999' 
WAVCIS,ioos:station:WAVCIS:CSI16:1,2009-03-03T21:00:00Z,29.4012,-89.0355,10.0,2.353,46.0,,'11111222,11111222,99999999' 
WAVCIS,ioos:station:WAVCIS:CSI16:1,2009-03-03T22:00:00Z,29.4012,-89.0355,10.0,3.303,55.0,,'11111222,11111222,99999999' 
WAVCIS,ioos:station:WAVCIS:CSI16:1,2009-03-03T23:00:00Z,29.4012,-89.0355,10.0,3.545,62.0,,'11111222,11111222,99999999' 
WAVCIS,ioos:station:WAVCIS:CSI16:1,2009-03-04T00:00:00Z,29.4012,-89.0355,10.0,3.119,82.0,,'11111222,11111222,99999999' 
WAVCIS,ioos:station:WAVCIS:CSI16:1,2009-03-04T01:00:00Z,29.4012,-89.0355,10.0,2.863,82.0,,'11111222,11111222,99999999' 
WAVCIS,ioos:station:WAVCIS:CSI16:1,2009-03-04T02:00:00Z,29.4012,-89.0355,10.0,3.533,107.0,,'11111222,11111222,99999999' 
WAVCIS,ioos:station:WAVCIS:CSI16:1,2009-03-04T03:00:00Z,29.4012,-89.0355,10.0,4.129,117.0,,'11111222,11111222,99999999' 
WAVCIS,ioos:station:WAVCIS:CSI16:1,2009-03-04T04:00:00Z,29.4012,-89.0355,10.0,4.531,122.0,,'11111222,11111222,99999999' 
WAVCIS,ioos:station:WAVCIS:CSI16:1,2009-03-04T05:00:00Z,29.4012,-89.0355,10.0,4.869,118.0,,'11111222,11111222,99999999' 
WAVCIS,ioos:station:WAVCIS:CSI16:1,2009-03-04T06:00:00Z,29.4012,-89.0355,10.0,4.611,129.0,,'11111222,11111222,99999999' 
WAVCIS,ioos:station:WAVCIS:CSI16:1,2009-03-04T07:00:00Z,29.4012,-89.0355,10.0,4.054,142.0,,'11111222,11111222,99999999' 
WAVCIS,ioos:station:WAVCIS:CSI16:1,2009-03-04T08:00:00Z,29.4012,-89.0355,10.0,3.434,138.0,,'11111222,11111222,99999999' 
WAVCIS,ioos:station:WAVCIS:CSI16:1,2009-03-04T09:00:00Z,29.4012,-89.0355,10.0,4.202,146.0,,'11111222,11111222,99999999' 
WAVCIS,ioos:station:WAVCIS:CSI16:1,2009-03-04T10:00:00Z,29.4012,-89.0355,10.0,4.111,139.0,,'11111222,11111222,99999999' 
WAVCIS,ioos:station:WAVCIS:CSI16:1,2009-03-04T11:00:00Z,29.4012,-89.0355,10.0,5.488,137.0,,'11111222,11111222,99999999' 
WAVCIS,ioos:station:WAVCIS:CSI16:1,2009-03-04T12:00:00Z,29.4012,-89.0355,10.0,5.366,136.0,,'11111222,11111222,99999999' 
WAVCIS,ioos:station:WAVCIS:CSI16:1,2009-03-04T13:00:00Z,29.4012,-89.0355,10.0,5.505,132.0,,'11111222,11111222,99999999' 
WAVCIS,ioos:station:WAVCIS:CSI16:1,2009-03-04T14:00:00Z,29.4012,-89.0355,10.0,5.559,128.0,,'11111222,11111222,99999999' 
WAVCIS,ioos:station:WAVCIS:CSI16:1,2009-03-04T15:00:00Z,29.4012,-89.0355,10.0,5.52,128.0,,'11111222,11111222,99999999' 
WAVCIS,ioos:station:WAVCIS:CSI16:1,2009-03-04T16:00:00Z,29.4012,-89.0355,10.0,4.309,123.0,,'11111222,11111222,99999999' 
WAVCIS,ioos:station:WAVCIS:CSI16:1,2009-03-04T17:00:00Z,29.4012,-89.0355,10.0,4.794,121.0,,'11111222,11111222,99999999' 
WAVCIS,ioos:station:WAVCIS:CSI16:1,2009-03-04T18:00:00Z,29.4012,-89.0355,10.0,4.892,123.0,,'11111222,11111222,99999999' 
WAVCIS,ioos:station:WAVCIS:CSI16:1,2009-03-04T19:00:00Z,29.4012,-89.0355,10.0,4.997,123.0,,'11111222,11111222,99999999' 
WAVCIS,ioos:station:WAVCIS:CSI16:1,2009-03-04T20:00:00Z,29.4012,-89.0355,10.0,5.468,125.0,,'11111222,11111222,99999999' 
WAVCIS,ioos:station:WAVCIS:CSI16:1,2009-03-04T21:00:00Z,29.4012,-89.0355,10.0,5.633,140.0,,'11111222,11111222,99999999' 
WAVCIS,ioos:station:WAVCIS:CSI16:1,2009-03-04T22:00:00Z,29.4012,-89.0355,10.0,5.514,139.0,,'11111222,11111222,99999999' 
WAVCIS,ioos:station:WAVCIS:CSI16:1,2009-03-04T23:00:00Z,29.4012,-89.0355,10.0,6.05,136.0,,'11111222,11111222,99999999' 
WAVCIS,ioos:station:WAVCIS:CSI16:1,2009-03-05T00:00:00Z,29.4012,-89.0355,10.0,6.167,140.0,,'11111222,11111222,99999999' 
WAVCIS,ioos:station:WAVCIS:CSI16:1,2009-03-05T01:00:00Z,29.4012,-89.0355,10.0,5.387,135.0,,'11111222,11111222,99999999' 
WAVCIS,ioos:station:WAVCIS:CSI16:1,2009-03-05T02:00:00Z,29.4012,-89.0355,10.0,5.856,146.0,,'11111222,11111222,99999999' 
WAVCIS,ioos:station:WAVCIS:CSI16:1,2009-03-05T03:00:00Z,29.4012,-89.0355,10.0,6.298,148.0,,'11111222,11111222,99999999' 
WAVCIS,ioos:station:WAVCIS:CSI16:1,2009-03-05T04:00:00Z,29.4012,-89.0355,10.0,6.808,148.0,,'11111222,11111222,99999999' 
WAVCIS,ioos:station:WAVCIS:CSI16:1,2009-03-05T05:00:00Z,29.4012,-89.0355,10.0,6.296,148.0,,'11111222,11111222,99999999' 
WAVCIS,ioos:station:WAVCIS:CSI16:1,2009-03-05T06:00:00Z,29.4012,-89.0355,10.0,5.969,154.0,,'11111222,11111222,99999999' 
WAVCIS,ioos:station:WAVCIS:CSI16:1,2009-03-05T07:00:00Z,29.4012,-89.0355,10.0,4.624,168.0,,'11111222,11111222,99999999' 
WAVCIS,ioos:station:WAVCIS:CSI16:1,2009-03-05T08:00:00Z,29.4012,-89.0355,10.0,2.9,147.0,,'11111222,11111222,99999999' 
WAVCIS,ioos:station:WAVCIS:CSI16:1,2009-03-05T09:00:00Z,29.4012,-89.0355,10.0,3.027,129.0,,'11111222,11111222,99999999' 
WAVCIS,ioos:station:WAVCIS:CSI16:1,2009-03-05T10:00:00Z,29.4012,-89.0355,10.0,5.807,138.0,,'11111222,11111222,99999999' 
WAVCIS,ioos:station:WAVCIS:CSI16:1,2009-03-05T11:00:00Z,29.4012,-89.0355,10.0,6.804,141.0,,'11111222,11111222,99999999' 
WAVCIS,ioos:station:WAVCIS:CSI16:1,2009-03-05T12:00:00Z,29.4012,-89.0355,10.0,6.564,137.0,,'11111222,11111222,99999999' 
WAVCIS,ioos:station:WAVCIS:CSI16:1,2009-03-05T13:00:00Z,29.4012,-89.0355,10.0,6.728,135.0,,'11111222,11111222,99999999' 
WAVCIS,ioos:station:WAVCIS:CSI16:1,2009-03-05T14:00:00Z,29.4012,-89.0355,10.0,7.06,130.0,,'11111222,11111222,99999999' 
WAVCIS,ioos:station:WAVCIS:CSI16:1,2009-03-05T15:00:00Z,29.4012,-89.0355,10.0,5.946,140.0,,'11111222,11111222,99999999' 
WAVCIS,ioos:station:WAVCIS:CSI16:1,2009-03-05T16:00:00Z,29.4012,-89.0355,10.0,6.181,135.0,,'11111222,11111222,99999999' 
WAVCIS,ioos:station:WAVCIS:CSI16:1,2009-03-05T17:00:00Z,29.4012,-89.0355,10.0,5.822,127.0,,'11111222,11111222,99999999' 
WAVCIS,ioos:station:WAVCIS:CSI16:1,2009-03-05T18:00:00Z,29.4012,-89.0355,10.0,5.926,131.0,,'11111222,11111222,99999999' 
WAVCIS,ioos:station:WAVCIS:CSI16:1,2009-03-05T19:00:00Z,29.4012,-89.0355,10.0,5.501,135.0,,'11111222,11111222,99999999' 
WAVCIS,ioos:station:WAVCIS:CSI16:1,2009-03-05T20:00:00Z,29.4012,-89.0355,10.0,5.1,139.0,,'11111222,11111222,99999999' 
WAVCIS,ioos:station:WAVCIS:CSI16:1,2009-03-05T21:00:00Z,29.4012,-89.0355,10.0,4.894,144.0,,'11111222,11111222,99999999' 
WAVCIS,ioos:station:WAVCIS:CSI16:1,2009-03-05T22:00:00Z,29.4012,-89.0355,10.0,5.186,149.0,,'11111222,11111222,99999999' 
WAVCIS,ioos:station:WAVCIS:CSI16:1,2009-03-05T23:00:00Z,29.4012,-89.0355,10.0,5.055,145.0,,'11111222,11111222,99999999' 
WAVCIS,ioos:station:WAVCIS:CSI16:1,2009-03-06T00:00:00Z,29.4012,-89.0355,10.0,5.369,139.0,,'11111222,11111222,99999999' 
WAVCIS,ioos:station:WAVCIS:CSI16:1,2009-03-06T01:00:00Z,29.4012,-89.0355,10.0,5.416,150.0,,'11111222,11111222,99999999' 
WAVCIS,ioos:station:WAVCIS:CSI16:1,2009-03-06T02:00:00Z,29.4012,-89.0355,10.0,6.118,154.0,,'11111222,11111222,99999999' 
WAVCIS,ioos:station:WAVCIS:CSI16:1,2009-03-06T03:00:00Z,29.4012,-89.0355,10.0,6.968,151.0,,'11111222,11111222,99999999' 
WAVCIS,ioos:station:WAVCIS:CSI16:1,2009-03-06T04:00:00Z,29.4012,-89.0355,10.0,7.43,156.0,,'11111222,11111222,99999999' 
WAVCIS,ioos:station:WAVCIS:CSI16:1,2009-03-06T05:00:00Z,29.4012,-89.0355,10.0,7.03,162.0,,'11111222,11111222,99999999' 
WAVCIS,ioos:station:WAVCIS:CSI16:1,2009-03-06T06:00:00Z,29.4012,-89.0355,10.0,6.731,169.0,,'11111222,11111222,99999999' 
WAVCIS,ioos:station:WAVCIS:CSI16:1,2009-03-06T07:00:00Z,29.4012,-89.0355,10.0,5.367,182.0,,'11111222,11111222,99999999' 
WAVCIS,ioos:station:WAVCIS:CSI16:1,2009-03-06T08:00:00Z,29.4012,-89.0355,10.0,3.735,187.0,,'11111222,11111222,99999999' 
WAVCIS,ioos:station:WAVCIS:CSI16:1,2009-03-06T09:00:00Z,29.4012,-89.0355,10.0,3.626,193.0,,'11111222,11111222,99999999' 
WAVCIS,ioos:station:WAVCIS:CSI16:1,2009-03-06T10:00:00Z,29.4012,-89.0355,10.0,3.064,194.0,,'11111222,11111222,99999999' 
WAVCIS,ioos:station:WAVCIS:CSI16:1,2009-03-06T11:00:00Z,29.4012,-89.0355,10.0,2.742,171.0,,'11111222,11111222,99999999' 
WAVCIS,ioos:station:WAVCIS:CSI16:1,2009-03-06T12:00:00Z,29.4012,-89.0355,10.0,2.437,146.0,,'11111222,11111222,99999999' 
WAVCIS,ioos:station:WAVCIS:CSI16:1,2009-03-06T13:00:00Z,29.4012,-89.0355,10.0,2.443,140.0,,'11111222,11111222,99999999' 
WAVCIS,ioos:station:WAVCIS:CSI16:1,2009-03-06T14:00:00Z,29.4012,-89.0355,10.0,2.526,148.0,,'11111222,11111222,99999999' 
WAVCIS,ioos:station:WAVCIS:CSI16:1,2009-03-06T15:00:00Z,29.4012,-89.0355,10.0,3.219,129.0,,'11111222,11111222,99999999' 
WAVCIS,ioos:station:WAVCIS:CSI16:1,2009-03-06T16:00:00Z,29.4012,-89.0355,10.0,4.239,132.0,,'11111222,11111222,99999999' 
WAVCIS,ioos:station:WAVCIS:CSI16:1,2009-03-06T17:00:00Z,29.4012,-89.0355,10.0,3.841,136.0,,'11111222,11111222,99999999' 
WAVCIS,ioos:station:WAVCIS:CSI16:1,2009-03-06T18:00:00Z,29.4012,-89.0355,10.0,5.869,131.0,,'11111222,11111222,99999999' 
WAVCIS,ioos:station:WAVCIS:CSI16:1,2009-03-06T19:00:00Z,29.4012,-89.0355,10.0,6.524,132.0,,'11111222,11111222,99999999' 
WAVCIS,ioos:station:WAVCIS:CSI16:1,2009-03-06T20:00:00Z,29.4012,-89.0355,10.0,7.08,136.0,,'11111222,11111222,99999999' 
WAVCIS,ioos:station:WAVCIS:CSI16:1,2009-03-06T21:00:00Z,29.4012,-89.0355,10.0,7.81,136.0,,'11111222,11111222,99999999' 
WAVCIS,ioos:station:WAVCIS:CSI16:1,2009-03-06T22:00:00Z,29.4012,-89.0355,10.0,6.638,134.0,,'11111222,11111222,99999999' 
WAVCIS,ioos:station:WAVCIS:CSI16:1,2009-03-06T23:00:00Z,29.4012,-89.0355,10.0,7.6,138.0,,'11111222,11111222,99999999' 
WAVCIS,ioos:station:WAVCIS:CSI16:1,2009-03-07T00:00:00Z,29.4012,-89.0355,10.0,6.765,139.0,,'11111222,11111222,99999999' 
WAVCIS,ioos:station:WAVCIS:CSI16:1,2009-03-07T01:00:00Z,29.4012,-89.0355,10.0,7.1,142.0,,'11111222,11111222,99999999' 
WAVCIS,ioos:station:WAVCIS:CSI16:1,2009-03-07T02:00:00Z,29.4012,-89.0355,10.0,7.83,140.0,,'11111222,11111222,99999999' 
WAVCIS,ioos:station:WAVCIS:CSI16:1,2009-03-07T03:00:00Z,29.4012,-89.0355,10.0,8.33,145.0,,'11111222,11111222,99999999' 
WAVCIS,ioos:station:WAVCIS:CSI16:1,2009-03-07T04:00:00Z,29.4012,-89.0355,10.0,6.94,148.0,,'11111222,11111222,99999999' 
WAVCIS,ioos:station:WAVCIS:CSI16:1,2009-03-07T05:00:00Z,29.4012,-89.0355,10.0,6.975,148.0,,'11111222,11111222,99999999' 
WAVCIS,ioos:station:WAVCIS:CSI16:1,2009-03-07T06:00:00Z,29.4012,-89.0355,10.0,8.12,149.0,,'11111222,11111222,99999999' 
WAVCIS,ioos:station:WAVCIS:CSI16:1,2009-03-07T07:00:00Z,29.4012,-89.0355,10.0,8.1,151.0,,'11111222,11111222,99999999' 
WAVCIS,ioos:station:WAVCIS:CSI16:1,2009-03-07T13:00:00Z,29.4012,-89.0355,10.0,5.352,161.0,,'11111222,11111222,99999999' 
WAVCIS,ioos:station:WAVCIS:CSI16:1,2009-03-07T14:00:00Z,29.4012,-89.0355,10.0,6.037,148.0,,'11111222,11111222,99999999' 
WAVCIS,ioos:station:WAVCIS:CSI16:1,2009-03-07T15:00:00Z,29.4012,-89.0355,10.0,6.898,151.0,,'11111222,11111222,99999999' 
WAVCIS,ioos:station:WAVCIS:CSI16:1,2009-03-07T16:00:00Z,29.4012,-89.0355,10.0,6.877,151.0,,'11111222,11111222,99999999' 
WAVCIS,ioos:station:WAVCIS:CSI16:1,2009-03-07T17:00:00Z,29.4012,-89.0355,10.0,6.158,152.0,,'11111222,11111222,99999999' 
WAVCIS,ioos:station:WAVCIS:CSI16:1,2009-03-07T18:00:00Z,29.4012,-89.0355,10.0,5.11,151.0,,'11111222,11111222,99999999' 
WAVCIS,ioos:station:WAVCIS:CSI16:1,2009-03-07T19:00:00Z,29.4012,-89.0355,10.0,6.655,138.0,,'11111222,11111222,99999999' 
WAVCIS,ioos:station:WAVCIS:CSI16:1,2009-03-07T20:00:00Z,29.4012,-89.0355,10.0,6.821,131.0,,'11111222,11111222,99999999' 
WAVCIS,ioos:station:WAVCIS:CSI16:1,2009-03-07T21:00:00Z,29.4012,-89.0355,10.0,7.74,126.0,,'11111222,11111222,99999999' 
WAVCIS,ioos:station:WAVCIS:CSI16:1,2009-03-07T22:00:00Z,29.4012,-89.0355,10.0,7.79,128.0,,'11111222,11111222,99999999' 
WAVCIS,ioos:station:WAVCIS:CSI16:1,2009-03-07T23:00:00Z,29.4012,-89.0355,10.0,7.42,130.0,,'11111222,11111222,99999999' 
WAVCIS,ioos:station:WAVCIS:CSI16:1,2009-03-08T00:00:00Z,29.4012,-89.0355,10.0,7.98,135.0,,'11111222,11111222,99999999' 
WAVCIS,ioos:station:WAVCIS:CSI16:1,2009-03-08T01:00:00Z,29.4012,-89.0355,10.0,7.88,137.0,,'11111222,11111222,99999999' 
WAVCIS,ioos:station:WAVCIS:CSI16:1,2009-03-08T02:00:00Z,29.4012,-89.0355,10.0,7.61,137.0,,'11111222,11111222,99999999' 
WAVCIS,ioos:station:WAVCIS:CSI16:1,2009-03-08T03:00:00Z,29.4012,-89.0355,10.0,7.33,136.0,,'11111222,11111222,99999999' 
WAVCIS,ioos:station:WAVCIS:CSI16:1,2009-03-08T04:00:00Z,29.4012,-89.0355,10.0,7.64,143.0,,'11111222,11111222,99999999' 
WAVCIS,ioos:station:WAVCIS:CSI16:1,2009-03-08T05:00:00Z,29.4012,-89.0355,10.0,7.31,148.0,,'11111222,11111222,99999999' 
WAVCIS,ioos:station:WAVCIS:CSI16:1,2009-03-08T06:00:00Z,29.4012,-89.0355,10.0,7.55,148.0,,'11111222,11111222,99999999' 
WAVCIS,ioos:station:WAVCIS:CSI16:1,2009-03-08T07:00:00Z,29.4012,-89.0355,10.0,7.24,148.0,,'11111222,11111222,99999999' 
WAVCIS,ioos:station:WAVCIS:CSI16:1,2009-03-08T08:00:00Z,29.4012,-89.0355,10.0,7.78,150.0,,'11111222,11111222,99999999' 
WAVCIS,ioos:station:WAVCIS:CSI16:1,2009-03-08T09:00:00Z,29.4012,-89.0355,10.0,6.916,155.0,,'11111222,11111222,99999999' 
WAVCIS,ioos:station:WAVCIS:CSI16:1,2009-03-08T10:00:00Z,29.4012,-89.0355,10.0,7.61,157.0,,'11111222,11111222,99999999' 
WAVCIS,ioos:station:WAVCIS:CSI16:1,2009-03-08T11:00:00Z,29.4012,-89.0355,10.0,7.73,154.0,,'11111222,11111222,99999999' 
WAVCIS,ioos:station:WAVCIS:CSI16:1,2009-03-08T12:00:00Z,29.4012,-89.0355,10.0,7.86,151.0,,'11111222,11111222,99999999' 
WAVCIS,ioos:station:WAVCIS:CSI16:1,2009-03-08T13:00:00Z,29.4012,-89.0355,10.0,7.76,148.0,,'11111222,11111222,99999999' 
WAVCIS,ioos:station:WAVCIS:CSI16:1,2009-03-08T14:00:00Z,29.4012,-89.0355,10.0,4.72,146.0,,'11111222,11111222,99999999' 
WAVCIS,ioos:station:WAVCIS:CSI16:1,2009-03-08T15:00:00Z,29.4012,-89.0355,10.0,3.907,144.0,,'11111222,11111222,99999999' 
WAVCIS,ioos:station:WAVCIS:CSI16:1,2009-03-08T16:00:00Z,29.4012,-89.0355,10.0,5.494,142.0,,'11111222,11111222,99999999' 
WAVCIS,ioos:station:WAVCIS:CSI16:1,2009-03-08T17:00:00Z,29.4012,-89.0355,10.0,5.922,147.0,,'11111222,11111222,99999999' 
WAVCIS,ioos:station:WAVCIS:CSI16:1,2009-03-08T18:00:00Z,29.4012,-89.0355,10.0,5.293,156.0,,'11111222,11111222,99999999' 
WAVCIS,ioos:station:WAVCIS:CSI16:1,2009-03-08T19:00:00Z,29.4012,-89.0355,10.0,5.03,162.0,,'11111222,11111222,99999999' 
WAVCIS,ioos:station:WAVCIS:CSI16:1,2009-03-08T20:00:00Z,29.4012,-89.0355,10.0,5.134,162.0,,'11111222,11111222,99999999' 
WAVCIS,ioos:station:WAVCIS:CSI16:1,2009-03-08T21:00:00Z,29.4012,-89.0355,10.0,4.944,158.0,,'11111222,11111222,99999999' 
WAVCIS,ioos:station:WAVCIS:CSI16:1,2009-03-08T22:00:00Z,29.4012,-89.0355,10.0,5.487,153.0,,'11111222,11111222,99999999' 
WAVCIS,ioos:station:WAVCIS:CSI16:1,2009-03-08T23:00:00Z,29.4012,-89.0355,10.0,5.023,150.0,,'11111222,11111222,99999999' 
WAVCIS,ioos:station:WAVCIS:CSI16:1,2009-03-09T00:00:00Z,29.4012,-89.0355,10.0,6.594,157.0,,'11111222,11111222,99999999' 
WAVCIS,ioos:station:WAVCIS:CSI16:1,2009-03-09T01:00:00Z,29.4012,-89.0355,10.0,6.169,159.0,,'11111222,11111222,99999999' 
WAVCIS,ioos:station:WAVCIS:CSI16:1,2009-03-09T02:00:00Z,29.4012,-89.0355,10.0,5.548,157.0,,'11111222,11111222,99999999' 
WAVCIS,ioos:station:WAVCIS:CSI16:1,2009-03-09T03:00:00Z,29.4012,-89.0355,10.0,5.836,156.0,,'11111222,11111222,99999999' 
WAVCIS,ioos:station:WAVCIS:CSI16:1,2009-03-09T04:00:00Z,29.4012,-89.0355,10.0,5.879,156.0,,'11111222,11111222,99999999' 
WAVCIS,ioos:station:WAVCIS:CSI16:1,2009-03-09T05:00:00Z,29.4012,-89.0355,10.0,6.819,160.0,,'11111222,11111222,99999999' 
WAVCIS,ioos:station:WAVCIS:CSI16:1,2009-03-09T06:00:00Z,29.4012,-89.0355,10.0,6.82,163.0,,'11111222,11111222,99999999' 
WAVCIS,ioos:station:WAVCIS:CSI16:1,2009-03-09T07:00:00Z,29.4012,-89.0355,10.0,5.71,167.0,,'11111222,11111222,99999999' 
WAVCIS,ioos:station:WAVCIS:CSI16:1,2009-03-09T08:00:00Z,29.4012,-89.0355,10.0,5.607,175.0,,'11111222,11111222,99999999' 
WAVCIS,ioos:station:WAVCIS:CSI16:1,2009-03-09T09:00:00Z,29.4012,-89.0355,10.0,4.795,165.0,,'11111222,11111222,99999999' 
WAVCIS,ioos:station:WAVCIS:CSI16:1,2009-03-09T10:00:00Z,29.4012,-89.0355,10.0,4.845,167.0,,'11111222,11111222,99999999' 
WAVCIS,ioos:station:WAVCIS:CSI16:1,2009-03-09T11:00:00Z,29.4012,-89.0355,10.0,5.848,171.0,,'11111222,11111222,99999999' 
WAVCIS,ioos:station:WAVCIS:CSI16:1,2009-03-09T12:00:00Z,29.4012,-89.0355,10.0,4.342,169.0,,'11111222,11111222,99999999' 